Reflectivity
-9 -7 12 17 -20 -20 -20 -20 -20 -20 -20 -20 -20 -20 -20 -20 -20 -20 -20 -20 -20 -20 -20 -20 -4 -1 -10 -20 13 -4 -20 -20 -14 -20 -5 13 2 -20 -20 -20 -20 -20 -20
-20 10 16 -5 8 -16 -18 -7 -1 -6 -20 -3 -20 -20 -20 -20 -20 -20 -20 -20 -20 -20 -20 -20 23 -18 -8 -20 -16 -7 -20 -20 -20 -20 -20 12 -20 -20 -4 -20 -20 -20 -20
-20 -20 -7 12 -2 -20 -20 -20 -1 -8 -4 -1 0 -20 -20 -20 -20 -20 -20 -20 -20 -11 -4 -20 9 2 -20 -20 -20 -20 -20 -20 -20 -20 -20 -20 -20 9 5 -18 -20 -20 -20
-20 -14 -13 6 7 -20 -18 -20 -20 -20 -20 -6 -5 -20 -20 -20 -20 -20 -20 -20 -20 16 10 -20 -20 -20 -20 -20 -20 -11 -20 -20 -20 -20 -20 -20 7 7 6 -20 -20 -20 -20
-3 1 16 8 4 -20 -20 -20 -20 -20 -20 -20 -20 -20 -20 -20 -9 -14 -20 -20 -20 11 13 -20 -20 -20 -20 -20 -20 -20 -20 -20 -20 -20 -20 -20 -20 -15 -20 -20 -20 -20 -20
-20 0 12 -10 3 -20 -20 -20 -20 -12 -20 -20 -20 -20 -20 -20 -20 8 -20 -20 -20 7 -20 -20 -20 -20 -20 -20 -20 -20 -20 -20 -20 -20 -20 -20 -20 -20 -20 -20 -20 -20 -20
-20 -20 -20 -0 -16 -20 32 -20 -20 -20 -20 -20 -20 -20 -12 -20 -20 -20 -20 -20 -20 -20 -20 -20 -20 -20 -20 -20 -20 -20 -20 -20 -20 -20 -20 -20 -20 -20 -20 -20 -20 -20 -20
-20 -20 -20 3 9 -20 5 -1 -8 -20 -20 -20 -20 -20 -17 -20 -20 -20 -20 -20 17 -20 -20 -20 -20 -20 -20 -20 -20 -20 -20 -20 -20 -20 -20 -20 -20 -20 -20 -20 -20 -20 -20
-20 -20 -20 -20 -3 7 -12 -20 -20 -20 -20 -20 -20 -20 -20 -20 -18 -20 -20 -20 -20 -20 -20 -20 -20 -20 -20 -20 -20 -20 -20 -20 -20 -20 -20 -20 -20 -20 -20 -20 -20 -20 -20
-20 -20 -20 -20 -20 -20 -18 -0 32 -19 -20 -1 -20 -20 -20 -20 -20 -20 -20 -20 -20 -20 -20 -20 -20 -20 -20 -20 -20 -20 -20 -20 -20 -20 -20 -20 -20 -20 -20 -20 -20 -20 -20
-20 -20 -20 -20 -20 -20 -20 -14 -14 3 -16 -20 -12 -20 -12 -20 -20 -20 -20 -20 -20 -20 -20 -20 -20 -20 -20 -20 -20 -20 -20 -20 -20 -20 -20 -20 -20 -20 -20 -20 -20 -20 -20
-20 -20 -20 -20 -20 -20 -20 -20 -20 -20 -20 -12 26 -10 5 -20 -20 -20 -20 -20 -20 -20 -20 -7 -20 -20 -20 -20 -20 -20 -20 -20 -20 -20 -20 -20 -20 -20 -20 -20 -20 -20 -20
-20 -20 -20 -20 -20 -20 -20 -20 -20 -20 -16 -20 12 25 25 -20 -20 -20 -20 -20 -20 -20 -20 -20 -20 -20 -20 -20 -20 -20 -20 -20 -20 -20 -20 -20 -20 -20 -20 -20 -20 -20 -20
-20 -20 -20 -20 -20 -20 -20 -20 -20 -20 -20 -20 -20 -20 -20 -20 18 -20 -20 -20 -20 -20 -20 -20 -20 -20 -20 -20 -20 -20 -20 -20 -20 -20 -20 -20 -20 -20 -20 -20 -20 -20 -20
-20 -20 -20 -20 -20 -20 -20 -20 -20 -20 -20 -20 -20 -20 -18 -20 4 -7 -20 -20 -20 -20 -20 -20 -20 -20 -20 -20 -20 -20 -20 -20 -20 -20 -20 -20 -20 -20 -20 -20 -20 -20 -20
-20 -20 -20 -20 -20 -20 -20 -20 -20 -20 -20 -20 -20 -20 -20 -16 -5 8 1 -20 -20 -20 -20 -20 -20 -20 -20 -20 -20 -20 -20 -20 -20 -20 -20 -20 -20 -20 -20 -20 -20 -20 -20
-20 -20 -20 -20 -20 -20 -20 -20 -20 -20 -20 -20 -20 -20 -20 -20 -20 -18 3 1 -20 -20 -20 -20 -20 -20 -20 -20 -20 -20 -20 -20 -20 -20 -20 -20 -20 -20 -20 -20 -20 -20 -20
-20 -20 -20 -20 -20 -20 -20 -20 -20 -20 -20 -20 -20 -20 -20 -20 -20 -20 12 5 -12 24 -12 3 19 -11 -20 -20 -20 -20 -20 -20 -20 -20 -20 -20 -20 -20 -20 -20 -20 -20 -20
-20 -20 -20 -20 -20 -20 -20 -20 -20 -20 -20 -20 -20 -20 -20 -20 -20 -20 -20 -2 19 19 24 16 8 14 25 27 -20 -20 -20 -7 1 -20 -20 -20 -20 -20 -20 -20 -20 -20 -20
-20 -20 -20 -20 -20 -20 -20 -20 -20 -20 -20 -20 -20 -20 -20 -20 -20 -20 -20 -20 10 18 19 3 15 11 -2 17 -20 -20 -20 -17 -20 -20 -19 -20 -20 -20 -20 -20 -20 -20 -20
-20 -20 -20 -20 -20 -20 -20 -20 -20 -20 -20 -20 -20 -20 -20 -20 -20 -20 -20 -12 -15 9 14 17 21 22 24 25 27 25 27 15 -20 -20 -20 -20 -20 -20 -20 -20 -20 -20 -20
-20 -20 -20 -20 -20 -20 -20 -20 -20 -20 -20 -20 -20 -20 -20 -20 -20 -20 -20 -20 -20 -20 -12 20 20 21 10 3 25 23 -3 23 -20 -20 -20 -19 -20 3 -19 -18 -20 -20 -20
-20 -20 -20 -20 -20 -20 -20 -20 -20 -20 -20 -20 -20 -20 -20 -20 -20 -20 -20 -20 -20 -16 1 -18 13 18 22 21 -17 22 25 17 22 17 -20 16 23 12 3 14 -18 -20 1
-20 -20 -20 -20 -20 -20 -20 -20 -20 -20 -20 -20 -20 -20 -20 -20 -20 -20 -20 1 9 11 -18 -20 -17 26 21 9 28 32 27 27 38 38 28 25 28 28 23 11 24 23 -12
-20 -20 -20 -20 -20 6 -20 -20 -20 -20 -20 -20 -20 -20 -20 -20 -20 -20 -20 -14 11 7 5 -20 -20 -19 -10 19 20 25 18 27 41 45 41 35 27 19 -8 17 -10 -3 -1
-20 -20 -20 -20 -19 -7 10 -20 -20 -20 -20 -20 -20 -20 -20 -20 -20 -20 -20 -20 -20 -20 -20 -20 -20 -14 4 8 14 11 31 43 28 31 27 37 29 16 28 15 10 19 33
Wind_Speed
3 8 10 10 12 12 11 10 8 8 8 9 9 9 9 10 10 9 9 9 9 9 10 10 8 7 8 8 10 13 12 12 11 11 9 9 12 13 13 13 11 7 12
8 9 8 8 9 10 10 10 9 8 7 8 8 9 9 9 9 9 9 8 8 10 10 8 9 10 10 11 11 12 11 10 10 8 8 9 10 11 13 12 11 8 11
6 7 5 10 9 9 9 9 9 9 8 7 8 8 9 8 8 8 8 8 8 8 10 9 9 10 10 10 10 11 13 11 9 7 7 4 4 12 11 10 10 9 10
7 8 1 8 9 9 10 10 10 10 9 8 9 9 8 8 7 8 7 7 6 6 10 10 8 7 8 9 9 10 10 9 10 7 4 4 5 10 10 9 9 9 9
9 9 9 7 7 8 8 10 10 10 10 9 9 10 10 8 8 7 7 5 4 7 9 9 7 7 7 8 8 9 7 5 7 6 4 3 3 6 8 8 7 8 8
8 9 11 5 5 7 7 8 9 10 10 9 10 11 11 10 8 8 8 6 6 9 9 9 8 6 6 7 7 7 5 3 6 5 4 5 4 7 8 8 7 7 7
7 7 9 15 7 6 7 7 8 9 9 9 9 10 9 10 10 7 6 7 8 11 10 9 8 7 6 6 7 6 5 5 6 5 4 4 4 8 8 8 7 7 7
7 7 7 11 14 8 6 7 7 8 9 9 9 9 8 10 9 9 7 9 9 12 11 10 9 9 8 7 7 6 5 4 5 5 5 4 7 10 9 8 7 7 7
7 7 7 7 8 11 11 8 7 7 8 9 10 9 9 9 9 10 9 9 12 13 12 12 12 11 10 9 8 5 5 4 5 3 4 3 8 10 10 9 8 7 7
7 7 7 7 7 7 6 7 8 7 7 9 9 9 8 8 8 9 10 9 12 13 13 12 13 13 12 10 8 6 6 6 3 4 4 4 10 11 10 9 9 8 8
5 6 6 7 6 6 6 4 7 8 9 8 7 8 7 4 5 7 6 9 11 13 14 14 14 13 11 10 9 9 7 3 4 3 3 9 12 12 12 11 11 10 9
6 7 5 6 7 6 5 6 5 6 4 5 5 6 4 5 5 6 6 9 10 12 13 14 15 13 9 4 3 7 3 4 4 4 4 12 15 14 13 13 12 12 11
6 6 9 8 8 7 5 4 3 2 3 3 5 6 5 4 4 4 3 3 4 7 5 8 8 6 6 4 4 4 4 4 3 3 5 12 16 17 15 15 14 14 13
7 7 9 10 8 7 4 4 4 4 4 4 3 4 3 3 4 4 4 4 5 4 6 5 4 5 6 6 6 6 6 5 3 3 5 11 15 19 17 17 16 16 15
8 9 9 9 10 9 7 5 5 5 4 5 5 4 4 5 6 5 6 5 6 5 7 7 7 6 7 7 7 7 7 6 6 4 4 11 15 17 18 17 17 17 17
9 10 8 10 7 8 9 9 7 5 6 5 5 5 5 6 7 7 7 7 7 8 8 8 9 8 8 8 9 8 9 7 6 7 5 6 14 18 18 19 19 18 18
8 8 10 11 9 9 10 8 7 7 7 5 5 6 6 6 8 10 7 7 8 8 10 8 9 8 7 6 10 9 9 10 8 8 8 6 7 15 18 21 19 18 18
7 10 11 10 11 10 9 8 8 8 7 7 5 5 7 7 8 9 7 8 8 7 8 8 9 9 9 9 9 10 9 10 11 11 8 8 7 7 12 20 19 19 19
7 9 10 10 10 11 11 9 9 10 6 7 5 5 7 7 7 8 8 7 8 7 9 10 9 9 8 9 10 9 8 9 11 9 11 10 9 9 7 11 18 18 18
8 8 8 8 11 11 9 8 7 7 6 5 6 6 7 6 7 7 8 8 7 8 8 8 11 9 9 10 9 10 9 9 9 10 11 9 10 11 9 8 7 10 17
7 8 11 12 13 9 8 7 5 6 5 4 5 8 8 8 8 8 7 7 7 8 11 10 11 12 9 6 2 5 6 9 10 10 10 9 9 10 9 9 7 6 7
8 10 12 11 12 10 8 7 5 7 7 6 6 6 7 8 7 7 7 6 7 6 8 10 10 9 9 8 9 7 7 8 10 12 10 9 12 8 8 10 9 10 8
9 11 12 13 14 12 12 8 6 6 4 4 4 4 5 7 6 6 7 8 6 6 7 8 10 11 11 9 13 9 5 11 4 5 13 10 11 8 8 9 9 10 9
10 10 12 12 14 11 9 8 7 7 7 4 4 3 5 5 6 6 7 8 7 4 6 7 8 11 10 11 6 11 14 3 4 2 3 7 10 12 12 8 8 8 9
8 9 10 12 12 14 9 8 6 8 5 4 4 6 5 5 5 5 5 6 5 4 5 7 8 9 9 10 10 8 12 11 8 5 8 3 3 7 8 8 7 7 7
6 6 7 10 10 12 12 11 10 9 8 7 7 5 5 4 4 5 6 5 5 5 6 7 8 10 10 11 11 12 11 6 8 8 6 5 7 4 6 7 7 5 3
Wind_Direction
318 317 276 153 149 153 156 153 147 131 125 120 116 120 123 125 127 129 131 132 137 136 129 133 131 130 115 105 113 111 113 117 93 84 67 103 104 105 104 97 83 76 86
286 296 243 171 167 172 163 158 151 141 142 139 131 132 134 136 135 137 138 139 145 144 142 129 122 116 110 107 107 106 107 108 107 94 82 85 97 117 114 105 96 92 91
302 307 221 184 170 169 175 170 159 156 159 155 149 145 144 142 143 144 149 153 165 166 143 141 116 114 113 112 118 115 110 115 115 95 90 85 106 118 111 98 94 91 91
327 346 272 181 173 174 173 170 171 168 177 170 160 160 155 155 160 156 157 163 178 175 148 133 134 125 121 122 124 120 119 117 131 121 103 100 108 122 108 103 102 98 96
7 358 355 171 181 177 182 179 177 180 183 179 181 173 171 178 177 180 174 176 190 156 147 143 151 145 140 137 134 126 114 115 155 140 123 115 83 115 111 109 105 110 110
-0 3 13 338 191 186 186 188 190 191 195 193 188 187 182 182 196 200 192 184 153 157 156 158 164 167 157 157 153 133 105 111 145 136 129 132 115 131 130 133 134 127 121
5 10 14 15 329 212 203 202 199 199 202 205 205 205 203 188 197 205 200 190 179 168 170 173 176 183 181 182 175 154 120 119 136 146 152 157 178 152 150 150 148 143 134
17 5 10 10 16 350 237 226 225 212 206 205 211 216 219 200 202 195 197 193 190 183 182 185 188 193 201 201 201 180 149 138 152 163 174 182 199 169 166 163 163 158 152
8 8 3 4 358 12 357 285 234 239 228 217 214 218 218 214 205 203 207 202 197 195 192 192 196 200 206 215 219 207 180 162 175 186 186 207 206 182 178 177 178 176 170
3 1 354 353 353 351 346 344 310 264 243 236 233 230 225 219 215 215 211 215 208 203 200 197 201 204 208 216 222 222 207 196 193 211 214 212 210 197 192 191 192 189 189
346 345 344 344 340 337 330 347 359 314 269 244 237 231 229 221 224 227 220 216 216 208 204 201 203 207 207 218 225 227 216 198 220 231 221 223 216 209 204 203 203 202 201
323 322 331 330 325 328 320 335 335 323 300 280 244 227 216 214 213 218 221 223 227 215 208 207 206 207 209 210 228 228 209 209 209 219 219 228 223 220 214 213 213 213 212
333 340 333 334 329 319 314 318 309 308 298 269 258 251 226 218 217 215 218 226 218 224 219 216 211 209 200 201 214 215 220 217 218 215 230 224 225 228 222 219 219 220 221
1 348 340 343 330 315 315 304 298 308 302 293 262 244 242 232 221 218 223 214 208 203 208 208 209 207 205 208 210 221 218 214 211 222 226 237 230 233 231 225 225 226 227
356 341 340 339 339 337 324 308 299 281 277 271 279 256 225 233 236 224 221 214 212 201 204 208 208 208 213 214 217 222 227 226 221 224 227 225 226 231 242 233 230 232 234
339 339 332 334 327 335 328 319 304 289 279 274 270 261 242 241 243 230 227 221 221 212 208 208 210 213 215 211 221 220 231 232 223 222 225 233 230 224 232 240 233 233 235
328 320 331 325 324 320 311 304 306 296 292 274 266 261 255 251 248 248 233 228 223 219 218 211 210 210 216 215 225 220 224 230 235 227 226 221 226 227 229 235 237 236 237
323 325 319 319 314 307 301 297 292 289 288 281 259 254 250 251 255 262 252 231 234 220 212 214 216 213 218 214 225 227 223 224 229 231 227 222 216 221 228 233 234 236 237
308 306 307 307 305 301 299 297 291 280 272 277 267 257 255 245 246 255 258 254 250 233 224 220 221 215 218 223 227 226 223 231 232 229 226 220 216 217 214 221 226 231 234
298 292 292 300 306 304 297 290 288 284 268 257 259 251 248 251 242 246 258 249 238 246 230 221 224 220 222 222 229 230 226 222 223 224 227 226 217 216 216 216 216 231 232
300 312 324 321 313 311 306 299 286 292 291 278 261 255 247 241 235 238 248 246 230 240 250 232 230 228 228 234 223 253 258 236 226 221 224 218 218 216 212 215 214 218 225
308 324 322 312 306 302 294 287 278 288 284 274 263 263 252 247 235 238 238 244 233 240 246 243 225 234 235 210 227 240 246 236 225 225 221 222 224 214 210 218 219 218 216
331 332 320 319 312 302 293 290 285 278 271 271 259 255 253 238 240 233 238 236 223 225 256 251 249 240 241 227 211 221 237 244 204 188 217 208 220 209 218 218 215 225 219
335 322 323 323 318 302 294 287 270 270 276 256 273 277 289 283 273 262 250 244 227 220 242 259 265 256 253 244 254 232 235 262 198 242 273 229 215 216 221 214 214 217 224
329 324 324 336 340 349 321 286 264 275 287 280 293 295 294 295 288 283 281 278 275 252 249 253 259 259 252 264 256 245 234 229 236 204 215 219 211 220 210 210 208 211 204
322 321 324 347 352 359 1 10 19 3 347 347 348 337 327 323 334 359 349 334 304 280 261 257 253 249 258 258 255 252 244 227 215 223 236 216 208 203 194 204 208 192 193